Weather History for Lovelock, NV

Change the Weather History Date:

Tuesday, March 19, 2013

  Actual Average Record
Temperature  
Mean Temperature 52 °F -  
Max Temperature 64 °F 60 °F 77 °F (1997)
Min Temperature 42 °F 25 °F 9 °F (1965)
Degree Days  
Heating Degree Days 12    
Growing Degree Days 2 (Base 50)    
Moisture  
Dew Point 24 °F    
Average Humidity 34    
Maximum Humidity 66    
Minimum Humidity 25    
Precipitation  
Precipitation 0.00 in - - ()
Sea Level Pressure  
Sea Level Pressure 30.03 in    
Wind  
Wind Speed 8 mph (SW)    
Max Wind Speed 17 mph    
Max Gust Speed 23 mph    
Visibility 10 miles    
Events Rain    
Averages and records for this station are not official NWS values.
T = Trace of Precipitation, MM = Missing Value Source: NWS Daily Summary

Daily Weather History Graph

Daily Weather History Graph

Search for Another Location

Airport:

Trip Planner

Search our weather history database for the weather conditions in past years. The results will help you decide how hot, cold, wet, or windy it might be!

Date:

Astronomy

Mar. 19, 2013 Rise Set
Actual Time 6:58 AM PDT 7:05 PM PDT
Civil Twilight 6:31 AM PDT 7:32 PM PDT
Nautical Twilight 6:00 AM PDT 8:04 PM PDT
Astronomical Twilight 5:28 AM PDT 8:36 PM PDT
Moon 11:53 AM PDT (3/19) 1:56 AM PDT (3/19)
Length of Visible Light 13h 00m
Length of Day
12h 06m
Waxing Crescent, 51% of the Moon is Illuminated
Mar 19
Waxing Crescent
Mar 27
Full
Apr 2
Last Quarter
Apr 10
New
Apr 18
First Quarter

Hourly Weather History & Observations

Time (PDT) Temp. Windchill Dew Point Humidity Pressure Visibility Wind Dir Wind Speed Gust Speed Precip Events Conditions
12:53 AM 48.0 °F - 16.0 °F 28% 30.04 in 10.0 mi East 6.9 mph - N/A   Overcast
1:53 AM 46.9 °F - 15.1 °F 28% 30.04 in 10.0 mi NE 10.4 mph - N/A   Overcast
2:53 AM 46.9 °F - 15.1 °F 28% 30.05 in 10.0 mi North 8.1 mph - N/A   Overcast
3:53 AM 46.9 °F - 12.9 °F 25% 30.04 in 10.0 mi NNE 8.1 mph - N/A   Overcast
4:53 AM 45.0 °F 43.5 °F 12.9 °F 27% 30.06 in 10.0 mi NE 3.5 mph - N/A   Overcast
5:53 AM 42.1 °F - 17.1 °F 37% 30.08 in 10.0 mi Calm Calm - N/A   Overcast
6:53 AM 42.1 °F - 18.0 °F 38% 30.11 in 10.0 mi Calm Calm - N/A   Overcast
7:53 AM 43.0 °F - 14.0 °F 31% 30.12 in 10.0 mi Calm Calm - N/A   Mostly Cloudy
8:53 AM 48.9 °F - 14.0 °F 25% 30.12 in 10.0 mi ENE 5.8 mph - N/A   Partly Cloudy
9:53 AM 52.0 °F - 17.1 °F 25% 30.12 in 10.0 mi NE 4.6 mph - N/A   Mostly Cloudy
10:53 AM 55.9 °F - 28.0 °F 34% 30.12 in 10.0 mi North - - N/A   Mostly Cloudy
11:53 AM 57.9 °F - 30.0 °F 35% 30.10 in 10.0 mi SSW 12.7 mph - N/A   Partly Cloudy
12:53 PM 61.0 °F - 30.0 °F 31% 30.06 in 10.0 mi SW 17.3 mph - N/A   Partly Cloudy
1:53 PM 61.0 °F - 28.9 °F 30% 30.04 in 10.0 mi SW 9.2 mph - N/A   Clear
2:53 PM 63.0 °F - 30.0 °F 29% 30.00 in 10.0 mi SSW 17.3 mph 23.0 mph N/A   Clear
3:53 PM 63.0 °F - 28.9 °F 28% 29.99 in 10.0 mi SSW 11.5 mph 17.3 mph N/A   Partly Cloudy
4:53 PM 62.1 °F - 28.9 °F 29% 29.97 in 10.0 mi South 4.6 mph - N/A   Mostly Cloudy
5:53 PM 62.1 °F - 28.9 °F 29% 29.96 in 10.0 mi South 9.2 mph - N/A   Overcast
6:53 PM 61.0 °F - 28.9 °F 30% 29.95 in 10.0 mi South 5.8 mph - N/A   Overcast
7:53 PM 57.9 °F - 30.0 °F 35% 29.95 in 10.0 mi West 8.1 mph - N/A   Overcast
8:53 PM 57.9 °F - 30.0 °F 35% 29.94 in 10.0 mi West 15.0 mph - N/A   Overcast
9:53 PM 55.0 °F - 33.1 °F 43% 29.97 in 10.0 mi West 11.5 mph - N/A   Scattered Clouds
10:53 PM 52.0 °F - 39.0 °F 61% 29.98 in 10.0 mi West 10.4 mph - 0.00 in Rain Light Rain
11:53 PM 50.0 °F - 39.0 °F 66% 29.95 in 10.0 mi WSW 3.5 mph - 0.00 in   Overcast